Location: Helsinki
(60.1699°N, 24.9384°E)
Time: 14:52:42
(UTC+02:00)

Tiros 1 - Pass Details

Date: 04 October 2022
Orbit: 629 x 662 km, 48.4° (Epoch: 07 December)

Event Time Altitude Azimuth Distance (km) Brightness Sun altitude
Rises 04:59:30 0° 258° (WSW) 2,987 - -19.3°
Reaches altitude 10° 05:02:52 10° 234° (SW) 2,067 - -18.9°
Maximum altitude 05:05:20 14° 203° (SSW) 1,799 - -18.7°
Exits shadow 05:06:55 12° 181° (S) 1,910 9.3 -18.5°
Drops below altitude 10° 05:07:46 10° 172° (S) 2,053 9.6 -18.4°
Sets 05:11:06 0° 147° (SSE) 2,953 10.7 -18.0°
